Hourly Weather Ischgl

Today, 2 July, Thursday

Time Temperature Precipitation Wind Pressure Humidity
00:00 +6°C° 0 mm 0 mps 574 mmHg 86%
01:00 +6°C° 0 mm 1 mps 574 mmHg 85%
02:00 +5°C° 0 mm 0 mps 574 mmHg 86%
03:00 +5°C° 0 mm 0 mps 573 mmHg 86%
04:00 +5°C° 0 mm 0 mps 573 mmHg 87%
05:00 +6°C° 0 mm 0 mps 574 mmHg 83%
06:00 +8°C° 0 mm 0 mps 575 mmHg 80%
07:00 +10°C° 0 mm 0 mps 576 mmHg 76%
08:00 +12°C° 0.2 mm 1 mps 577 mmHg 72%
09:00 +13°C° 0.2 mm 1 mps 577 mmHg 68%
10:00 +14°C° 0.2 mm 1 mps 577 mmHg 64%
11:00 +14°C° 0.8 mm 1 mps 577 mmHg 66%
12:00 +15°C° 0.8 mm 1 mps 577 mmHg 68%
13:00 +15°C° 0.8 mm 1 mps 577 mmHg 69%
14:00 +14°C° 1.1 mm 1 mps 577 mmHg 72%
15:00 +14°C° 1.1 mm 2 mps 577 mmHg 75%
16:00 +14°C° 1.1 mm 2 mps 577 mmHg 78%
17:00 +13°C° 1.2 mm 2 mps 576 mmHg 82%
18:00 +12°C° 1.2 mm 2 mps 576 mmHg 86%
19:00 +10°C° 1.2 mm 2 mps 576 mmHg 90%
20:00 +9°C° 0.7 mm 2 mps 575 mmHg 92%
21:00 +8°C° 0.7 mm 2 mps 575 mmHg 94%
22:00 +7°C° 0.7 mm 2 mps 575 mmHg 96%
23:00 +7°C° 0.7 mm 2 mps 575 mmHg 96%

Tomorrow, 3 July, Friday

Time Temperature Precipitation Wind Pressure Humidity
00:00 +6°C° 0.7 mm 2 mps 575 mmHg 96%
01:00 +6°C° 0.7 mm 2 mps 575 mmHg 96%
02:00 +6°C° 0.3 mm 2 mps 575 mmHg 96%
03:00 +5°C° 0.3 mm 2 mps 574 mmHg 96%
04:00 +5°C° 0.3 mm 2 mps 574 mmHg 97%
05:00 +5°C° 0.2 mm 2 mps 575 mmHg 96%
06:00 +5°C° 0.2 mm 2 mps 575 mmHg 95%
07:00 +5°C° 0.2 mm 2 mps 575 mmHg 94%
08:00 +6°C° 0.1 mm 2 mps 575 mmHg 94%
09:00 +6°C° 0.1 mm 2 mps 575 mmHg 93%
10:00 +6°C° 0.1 mm 2 mps 576 mmHg 92%
11:00 +7°C° 0.1 mm 2 mps 576 mmHg 89%
12:00 +7°C° 0.1 mm 2 mps 576 mmHg 87%
13:00 +8°C° 0.1 mm 2 mps 576 mmHg 84%
14:00 +8°C° 0.3 mm 2 mps 576 mmHg 85%
15:00 +8°C° 0.3 mm 2 mps 576 mmHg 85%
16:00 +8°C° 0.3 mm 2 mps 576 mmHg 85%
17:00 +8°C° 0.3 mm 2 mps 577 mmHg 86%
18:00 +7°C° 0.3 mm 2 mps 577 mmHg 87%
19:00 +7°C° 0.3 mm 2 mps 577 mmHg 88%
20:00 +7°C° 0.1 mm 2 mps 577 mmHg 91%
21:00 +6°C° 0.1 mm 2 mps 577 mmHg 94%
22:00 +5°C° 0.1 mm 2 mps 577 mmHg 97%
23:00 +6°C° 0 mm 1 mps 577 mmHg 97%

Day after tomorrow, 4 July, Saturday

Time Temperature Precipitation Wind Pressure Humidity
00:00 +6°C° 0 mm 1 mps 577 mmHg 97%
01:00 +6°C° 0 mm 1 mps 577 mmHg 97%
02:00 +6°C° 0 mm 1 mps 577 mmHg 97%
03:00 +5°C° 0 mm 1 mps 577 mmHg 97%
04:00 +5°C° 0 mm 1 mps 576 mmHg 97%
05:00 +6°C° 0 mm 1 mps 577 mmHg 95%
06:00 +6°C° 0 mm 1 mps 577 mmHg 93%
07:00 +7°C° 0 mm 1 mps 577 mmHg 91%
08:00 +8°C° 0 mm 1 mps 578 mmHg 86%
09:00 +9°C° 0 mm 1 mps 578 mmHg 81%
10:00 +10°C° 0 mm 1 mps 579 mmHg 76%
11:00 +10°C° 0 mm 1 mps 579 mmHg 73%
12:00 +11°C° 0 mm 1 mps 579 mmHg 69%
13:00 +12°C° 0 mm 2 mps 580 mmHg 66%
14:00 +12°C° 0 mm 2 mps 580 mmHg 66%
15:00 +12°C° 0 mm 2 mps 580 mmHg 66%
16:00 +12°C° 0 mm 2 mps 580 mmHg 66%
17:00 +12°C° 0 mm 2 mps 579 mmHg 68%
18:00 +10°C° 0 mm 2 mps 579 mmHg 71%
19:00 +10°C° 0 mm 2 mps 579 mmHg 73%
20:00 +9°C° 0 mm 1 mps 578 mmHg 80%
21:00 +7°C° 0 mm 1 mps 578 mmHg 87%
22:00 +5°C° 0 mm 1 mps 577 mmHg 93%
23:00 +4°C° 0 mm 0 mps 577 mmHg 94%

5 July, Sunday

Time Temperature Precipitation Wind Pressure Humidity
00:00 +4°C° 0 mm 0 mps 577 mmHg 94%
01:00 +3°C° 0 mm 0 mps 577 mmHg 95%
02:00 +3°C° 0 mm 0 mps 577 mmHg 95%
03:00 +3°C° 0 mm 0 mps 576 mmHg 95%
04:00 +2°C° 0 mm 0 mps 576 mmHg 95%
05:00 +4°C° 0 mm 0 mps 577 mmHg 87%
06:00 +6°C° 0 mm 0 mps 578 mmHg 79%
07:00 +8°C° 0 mm 0 mps 579 mmHg 71%
08:00 +11°C° 0 mm 1 mps 580 mmHg 63%
09:00 +13°C° 0 mm 1 mps 580 mmHg 55%
10:00 +14°C° 0 mm 2 mps 581 mmHg 47%
11:00 +15°C° 0 mm 2 mps 581 mmHg 47%
12:00 +16°C° 0 mm 2 mps 582 mmHg 46%
13:00 +17°C° 0 mm 2 mps 582 mmHg 46%
14:00 +17°C° 0 mm 2 mps 582 mmHg 48%
15:00 +17°C° 0 mm 2 mps 582 mmHg 50%
16:00 +17°C° 0 mm 2 mps 581 mmHg 53%
17:00 +16°C° 0 mm 2 mps 581 mmHg 60%
18:00 +15°C° 0 mm 2 mps 581 mmHg 67%
19:00 +14°C° 0 mm 2 mps 580 mmHg 74%
20:00 +12°C° 0 mm 1 mps 579 mmHg 81%
21:00 +10°C° 0 mm 1 mps 579 mmHg 88%
22:00 +7°C° 0 mm 0 mps 578 mmHg 96%
23:00 +6°C° 0 mm 0 mps 577 mmHg 95%

6 July, Monday

Time Temperature Precipitation Wind Pressure Humidity
00:00 +6°C° 0 mm 0 mps 577 mmHg 95%
01:00 +6°C° 0 mm 0 mps 577 mmHg 95%
02:00 +5°C° 0 mm 0 mps 576 mmHg 94%
03:00 +5°C° 0 mm 0 mps 576 mmHg 93%
04:00 +5°C° 0 mm 0 mps 576 mmHg 93%
05:00 +7°C° 0 mm 0 mps 577 mmHg 86%
06:00 +9°C° 0 mm 0 mps 578 mmHg 79%
07:00 +11°C° 0 mm 0 mps 579 mmHg 72%
08:00 +13°C° 0 mm 0 mps 580 mmHg 66%
09:00 +16°C° 0 mm 1 mps 580 mmHg 59%
10:00 +18°C° 0 mm 1 mps 581 mmHg 52%
11:00 +19°C° 0 mm 1 mps 581 mmHg 50%
12:00 +20°C° 0 mm 1 mps 581 mmHg 48%
13:00 +20°C° 0 mm 2 mps 581 mmHg 46%
14:00 +19°C° 0.1 mm 2 mps 580 mmHg 53%
15:00 +18°C° 0.1 mm 2 mps 580 mmHg 61%
16:00 +17°C° 0.1 mm 3 mps 579 mmHg 68%
17:00 +16°C° 0.6 mm 3 mps 579 mmHg 76%
18:00 +14°C° 0.6 mm 2 mps 578 mmHg 84%
19:00 +13°C° 0.6 mm 2 mps 577 mmHg 92%
20:00 +12°C° 0.2 mm 2 mps 577 mmHg 93%
21:00 +10°C° 0.2 mm 2 mps 577 mmHg 94%
22:00 +9°C° 0.2 mm 2 mps 577 mmHg 95%
23:00 +9°C° 0.2 mm 1 mps 576 mmHg 95%

7 July, Tuesday

Time Temperature Precipitation Wind Pressure Humidity
00:00 +9°C° 0.2 mm 1 mps 576 mmHg 95%
01:00 +9°C° 0.2 mm 1 mps 576 mmHg 95%
02:00 +8°C° 0.2 mm 1 mps 575 mmHg 95%
03:00 +8°C° 0.2 mm 1 mps 575 mmHg 95%
04:00 +8°C° 0.2 mm 1 mps 575 mmHg 96%
05:00 +8°C° 0.1 mm 1 mps 575 mmHg 96%
06:00 +8°C° 0.1 mm 1 mps 575 mmHg 96%
07:00 +8°C° 0.1 mm 1 mps 575 mmHg 96%
08:00 +8°C° 0.2 mm 1 mps 575 mmHg 95%
09:00 +8°C° 0.2 mm 1 mps 575 mmHg 94%
10:00 +7°C° 0.2 mm 2 mps 575 mmHg 93%
11:00 +7°C° 0.4 mm 2 mps 575 mmHg 94%
12:00 +7°C° 0.4 mm 2 mps 575 mmHg 94%
13:00 +5°C° 0.4 mm 3 mps 575 mmHg 95%
14:00 +5°C° 1 mm 3 mps 575 mmHg 95%
15:00 +4°C° 1 mm 3 mps 574 mmHg 96%
16:00 +3°C° 1 mm 3 mps 574 mmHg 96%
17:00 +3°C° 1 mm 3 mps 574 mmHg 96%
18:00 +3°C° 1 mm 3 mps 574 mmHg 95%
19:00 +2°C° 1 mm 3 mps 574 mmHg 95%
20:00 +2°C° 0 mm 2 mps 574 mmHg 95%
21:00 +2°C° 0 mm 2 mps 575 mmHg 96%
22:00 +1°C° 0 mm 2 mps 575 mmHg 96%
23:00 -1°C° 0 mm 2 mps 574 mmHg 95%
Show more